Project,Study,Ord_Occ,Event_Num,Cast_ID,Date_Time_UTC,Date_Time_PST,Lat_Dec,Lon_Dec,Sta_ID,Line,Sta,Depth,Pressure,PrQ,Temp1,Temp1Q,Temp2,Temp2Q,TempAve,Salt1,Salt1Q,Salt1_Corr,Salt2,Salt2Q,Salt2_Corr,SaltAve_Corr,Ox1,Ox1Q,Ox1_CruiseCorr,Ox1_StaCorr,Ox2,Ox2Q,Ox2_CruiseCorr,Ox2_StaCorr,OxAve_StaCorr,Ox1uM,Ox1uM_CruiseCorr,Ox1uM_StaCorr,Ox2uM,Ox2uM_CruiseCorr,Ox2uM_StaCorr,OxAveuM_StaCorr,FluorV,FluorQ,EstChl_CruiseCorr,EstChl_StaCorr,ISUSV,ISUSQ,EstNO3_CruiseCorr,EstNO3_StaCorr,SigThetaTS1,SigThetaTS1Q,SigThetaTS2,SigThetaTS2Q,BAT,XMiss,TransQ,pH,pHQ,SPAR,SPARQ,PAR,PARQ,PoT1,PoT2,DynHt,SVA,OxSat1,OxSat2,BTL_Depth,BTL_Temp,SaltB,OxB,OxBuM,Chl-a,Phaeo,NO3,NO2,NH4,PO4,SIL
CalCOFI,2007SR,069,71,2007_069u,26-Jul-2020 18:33:19,26-Jul-2020 10:33:19,34.45032,-120.52884,080.0 051.0,080.0,051.0,66.000,66.488,,10.2474,,10.2503,,10.2489,33.8343,,33.8345,33.8354,,33.8370,33.8358,2.8403,,2.9501,2.9107,3.2571,,3.8345,3.2668,3.0888,123.633,128.5724,141.5167,141.774,136.8438,136.6283,139.0725,0.0416,,0.0646,0.0000,-99.0,,-99.0,-99.0,26.0009,,26.0013,,0.7316,83.2846,,7.834,,2.1504E+03,,1.2705E+00,,10.2398,10.2426,0.1507,,44.884,51.473,66,10.247,33.8336,2.942,128.42,0.126,0.183,21.76,0.029,0.00,1.74,23.46
CalCOFI,2007SR,069,71,2007_069u,26-Jul-2020 18:33:31,26-Jul-2020 10:33:31,34.45032,-120.52884,080.0 051.0,080.0,051.0,65.000,65.480,,10.2461,,10.2453,,10.2457,33.8340,,33.8342,33.8355,,33.8371,33.8357,2.8402,,2.9500,2.9105,3.2320,,3.7746,3.1861,3.0483,123.631,128.5703,141.5173,140.685,136.8389,137.3430,139.4302,0.0397,,0.0422,0.0000,-99.0,,-99.0,-99.0,26.0010,,26.0022,,0.7327,83.2623,,7.834,,2.1419E+03,,1.2179E+00,,10.2385,10.2377,0.1510,,44.882,51.073,,,,,,,,,,,,
CalCOFI,2007SR,069,71,2007_069u,26-Jul-2020 18:33:33,26-Jul-2020 10:33:33,34.45032,-120.52884,080.0 051.0,080.0,051.0,64.000,64.472,,10.2468,,10.2480,,10.2474,33.8339,,33.8341,33.8352,,33.8368,33.8355,2.8436,,2.9536,2.9143,3.2280,,3.7650,3.1732,3.0438,123.776,128.7217,141.4770,140.508,137.1936,137.4591,139.4681,0.0403,,0.0493,0.0000,-99.0,,-99.0,-99.0,26.0007,,26.0015,,0.7331,83.2552,,7.834,,2.1469E+03,,1.2166E+00,,10.2394,10.2406,0.1510,,44.935,51.011,,,,,,,,,,,,
CalCOFI,2007SR,069,71,2007_069u,26-Jul-2020 18:33:36,26-Jul-2020 10:33:36,34.45032,-120.52884,080.0 051.0,080.0,051.0,63.000,63.465,,10.2521,,10.2529,,10.2525,33.8327,,33.8329,33.8340,,33.8356,33.8343,2.8557,,2.9662,2.9275,3.2202,,3.7464,3.1481,3.0378,124.305,129.2739,141.3300,140.170,138.4874,137.6810,139.5055,0.0404,,0.0505,0.0000,-99.0,,-99.0,-99.0,25.9989,,25.9997,,0.7349,83.2169,,7.834,,2.1432E+03,,1.2178E+00,,10.2448,10.2456,0.1510,,45.132,50.893,,,,,,,,,,,,
CalCOFI,2007SR,069,71,2007_069u,26-Jul-2020 18:33:38,26-Jul-2020 10:33:38,34.45032,-120.52884,080.0 051.0,080.0,051.0,62.000,62.457,,10.2592,,10.2584,,10.2588,33.8307,,33.8309,33.8324,,33.8340,33.8325,2.8713,,2.9825,2.9446,3.2167,,3.7380,3.1369,3.0408,124.982,129.9806,141.1419,140.017,140.1433,137.7814,139.4617,0.0407,,0.0540,0.0000,-99.0,,-99.0,-99.0,25.9961,,25.9975,,0.7348,83.2188,,7.834,,2.1454E+03,,1.2218E+00,,10.2520,10.2512,0.1510,,45.384,50.843,,,,,,,,,,,,
CalCOFI,2007SR,069,71,2007_069u,26-Jul-2020 18:33:40,26-Jul-2020 10:33:40,34.45032,-120.52884,080.0 051.0,080.0,051.0,61.000,61.450,,10.2758,,10.2758,,10.2758,33.8275,,33.8277,33.8292,,33.8308,33.8293,2.9002,,3.0127,2.9762,3.2103,,3.7227,3.1163,3.0463,126.241,131.2949,140.7921,139.741,143.2226,137.9625,139.3773,0.0421,,0.0704,0.0000,-99.0,,-99.0,-99.0,25.9906,,25.9920,,0.7352,83.2108,,7.834,,2.1531E+03,,1.2164E+00,,10.2687,10.2687,0.1510,,45.856,50.761,,,,,,,,,,,,
CalCOFI,2007SR,069,71,2007_069u,26-Jul-2020 18:33:42,26-Jul-2020 10:33:42,34.45032,-120.52884,080.0 051.0,080.0,051.0,60.000,60.442,,10.2982,,10.3023,,10.3003,33.8193,,33.8195,33.8192,,33.8208,33.8202,2.9191,,3.0325,2.9969,3.2046,,3.7091,3.0980,3.0475,127.064,132.1540,140.5635,139.495,145.2355,138.1239,139.3437,0.0399,,0.0446,0.0000,-99.0,,-99.0,-99.0,25.9804,,25.9797,,0.7339,83.2372,,7.834,,2.1463E+03,,1.2242E+00,,10.2912,10.2953,0.1510,,46.175,50.697,,,,,,,,,,,,
CalCOFI,2007SR,069,71,2007_069u,26-Jul-2020 18:33:44,26-Jul-2020 10:33:44,34.45032,-120.52884,080.0 051.0,080.0,051.0,59.000,59.435,,10.3134,,10.3146,,10.3140,33.8135,,33.8137,33.8145,,33.8161,33.8149,2.9289,,3.0427,3.0076,3.2006,,3.6996,3.0851,3.0464,127.491,132.5998,140.4448,139.318,146.2799,138.2401,139.3425,0.0481,,0.1409,0.0061,-99.0,,-99.0,-99.0,25.9733,,25.9739,,0.7342,83.2311,,7.837,,2.1527E+03,,1.2288E+00,,10.3065,10.3077,0.1510,,46.343,50.644,,,,,,,,,,,,
CalCOFI,2007SR,069,71,2007_069u,26-Jul-2020 18:33:46,26-Jul-2020 10:33:46,34.45032,-120.52884,080.0 051.0,080.0,051.0,58.000,58.427,,10.3193,,10.3194,,10.3194,33.8122,,33.8124,33.8137,,33.8153,33.8139,2.9456,,3.0602,3.0259,3.1981,,3.6936,3.0771,3.0515,128.219,133.3597,140.2426,139.213,148.0605,138.3090,139.2758,0.0406,,0.0528,0.0000,-99.0,,-99.0,-99.0,25.9712,,25.9724,,0.7353,83.2084,,7.839,,2.1509E+03,,1.2370E+00,,10.3125,10.3126,0.1510,,46.613,50.611,,,,,,,,,,,,
CalCOFI,2007SR,069,71,2007_069u,26-Jul-2020 18:33:48,26-Jul-2020 10:33:48,34.45032,-120.52884,080.0 051.0,080.0,051.0,57.000,57.420,,10.3530,,10.3568,,10.3549,33.8081,,33.8083,33.8103,,33.8119,33.8101,2.9475,,3.0621,3.0280,3.1900,,3.6743,3.0511,3.0396,128.304,133.4484,140.2190,138.859,148.2684,138.5413,139.3802,0.0407,,0.0540,0.0000,-99.0,,-99.0,-99.0,25.9622,,25.9632,,0.7384,83.1430,,7.840,,2.1487E+03,,1.2497E+00,,10.3463,10.3501,0.1510,,46.677,50.521,,,,,,,,,,,,
CalCOFI,2007SR,069,71,2007_069u,26-Jul-2020 18:33:49,26-Jul-2020 10:33:49,34.45032,-120.52884,080.0 051.0,080.0,051.0,56.000,56.412,,10.4079,,10.4119,,10.4099,33.8049,,33.8051,33.8064,,33.8080,33.8066,2.9486,,3.0633,3.0292,3.1880,,3.6695,3.0446,3.0369,128.352,133.4986,140.2056,138.774,148.3858,138.5971,139.4014,0.0413,,0.0610,0.0000,-99.0,,-99.0,-99.0,25.9502,,25.9507,,0.7422,83.0656,,7.842,,2.1527E+03,,1.2553E+00,,10.4013,10.4054,0.1510,,46.748,50.549,,,,,,,,,,,,
CalCOFI,2007SR,069,71,2007_069u,26-Jul-2020 18:33:51,26-Jul-2020 10:33:51,34.45032,-120.52884,080.0 051.0,080.0,051.0,55.000,55.405,,10.4368,,10.4357,,10.4363,33.8018,,33.8020,33.8036,,33.8052,33.8036,2.9557,,3.0707,3.0369,3.1860,,3.6647,3.0382,3.0376,128.665,133.8253,140.1187,138.689,149.1514,138.6528,139.3858,0.0453,,0.1080,0.0000,-99.0,,-99.0,-99.0,25.9428,,25.9443,,0.7464,82.9782,,7.843,,2.1581E+03,,1.2715E+00,,10.4303,10.4293,0.1510,,46.890,50.543,,,,,,,,,,,,
CalCOFI,2007SR,069,71,2007_069u,26-Jul-2020 18:33:54,26-Jul-2020 10:33:54,34.45032,-120.52884,080.0 051.0,080.0,051.0,54.000,54.397,,10.4450,,10.4438,,10.4444,33.8001,,33.8003,33.8015,,33.8031,33.8017,2.9876,,3.1040,3.0719,3.1844,,3.6609,3.0331,3.0525,130.052,135.2732,139.7333,138.617,152.5438,138.7001,139.2167,0.0437,,0.0892,0.0000,-99.0,,-99.0,-99.0,25.9400,,25.9413,,0.7415,83.0802,,7.843,,2.1496E+03,,1.2913E+00,,10.4386,10.4375,0.1510,,47.403,50.524,,,,,,,,,,,,
CalCOFI,2007SR,069,71,2007_069u,26-Jul-2020 18:33:56,26-Jul-2020 10:33:56,34.45032,-120.52884,080.0 051.0,080.0,051.0,53.000,53.390,,10.4680,,10.4655,,10.4668,33.7963,,33.7965,33.7985,,33.8001,33.7983,3.0115,,3.1290,3.0980,3.1814,,3.6538,3.0234,3.0607,131.092,136.3588,139.4444,138.491,155.0875,138.7828,139.1136,0.0461,,0.1174,0.0000,-99.0,,-99.0,-99.0,25.9330,,25.9352,,0.7332,83.2523,,7.844,,2.1484E+03,,1.3105E+00,,10.4618,10.4592,0.1510,,47.805,50.500,,,,,,,,,,,,
CalCOFI,2007SR,069,71,2007_069u,26-Jul-2020 18:33:58,26-Jul-2020 10:33:58,34.45032,-120.52884,080.0 051.0,080.0,051.0,52.000,52.382,,10.5096,,10.5178,,10.5137,33.7868,,33.7870,33.7860,,33.7876,33.7873,3.0069,,3.1242,3.0930,3.1794,,3.6490,3.0170,3.0550,130.895,136.1532,139.4991,138.405,154.6056,138.8392,139.1692,0.0735,,0.4394,1.1904,-99.0,,-99.0,-99.0,25.9184,,25.9164,,0.7354,83.2070,,7.847,,2.1504E+03,,1.3335E+00,,10.5035,10.5117,0.1510,,47.772,50.521,,,,,,,,,,,,
CalCOFI,2007SR,069,71,2007_069u,26-Jul-2020 18:34:12,26-Jul-2020 10:34:12,34.45032,-120.52884,080.0 051.0,080.0,051.0,51.000,51.375,,10.4933,,10.4849,,10.4891,33.7877,,33.7879,33.7904,,33.7920,33.7900,2.9947,,3.1115,3.0796,3.1905,,3.6755,3.0527,3.0662,130.364,135.5989,139.6466,138.889,153.3069,138.5216,139.0841,0.0494,,0.1562,0.0667,-99.0,,-99.0,-99.0,25.9219,,25.9254,,0.7364,83.1845,,7.853,,2.1499E+03,,1.3308E+00,,10.4873,10.4789,0.1515,,47.562,50.664,51,10.493,33.7908,3.099,135.26,0.176,0.196,20.46,0.029,0.11,1.64,21.48
CalCOFI,2007SR,069,71,2007_069u,26-Jul-2020 18:34:28,26-Jul-2020 10:34:28,34.45032,-120.52884,080.0 051.0,080.0,051.0,50.000,50.367,,10.5003,,10.4861,,10.4932,33.7849,,33.7851,33.7887,,33.7903,33.7877,3.0077,,3.1250,3.0939,3.1951,,3.6865,3.0675,3.0807,130.932,136.1918,139.4888,139.089,154.6961,138.3903,138.9396,0.0446,,0.0998,0.0000,-99.0,,-99.0,-99.0,25.9185,,25.9239,,0.7383,83.1456,,7.852,,2.1471E+03,,1.3148E+00,,10.4944,10.4802,0.1524,,47.775,50.738,,,,,,,,,,,,
CalCOFI,2007SR,069,71,2007_069u,26-Jul-2020 18:34:30,26-Jul-2020 10:34:30,34.45032,-120.52884,080.0 051.0,080.0,051.0,49.000,49.360,,10.4907,,10.4800,,10.4854,33.7873,,33.7875,33.7899,,33.7915,33.7895,3.0373,,3.1560,3.1262,3.1939,,3.6836,3.0636,3.0949,132.220,137.5364,139.1310,139.035,157.8464,138.4258,138.7784,0.0454,,0.1092,0.0000,-99.0,,-99.0,-99.0,25.9220,,25.9259,,0.7384,83.1444,,7.852,,2.1552E+03,,1.3365E+00,,10.4849,10.4743,0.1524,,48.236,50.712,,,,,,,,,,,,
CalCOFI,2007SR,069,71,2007_069u,26-Jul-2020 18:34:33,26-Jul-2020 10:34:33,34.45032,-120.52884,080.0 051.0,080.0,051.0,48.000,48.352,,10.5503,,10.5366,,10.5435,33.7747,,33.7749,33.7788,,33.7804,33.7777,3.0420,,3.1609,3.1314,3.1941,,3.6841,3.0642,3.0978,132.426,137.7514,139.0738,139.048,158.3502,138.4173,138.7456,0.0617,,0.3007,0.6402,-99.0,,-99.0,-99.0,25.9018,,25.9074,,0.7386,83.1395,,7.857,,2.1632E+03,,1.3648E+00,,10.5446,10.5309,0.1524,,48.368,50.774,,,,,,,,,,,,
CalCOFI,2007SR,069,71,2007_069u,26-Jul-2020 18:34:35,26-Jul-2020 10:34:35,34.45032,-120.52884,080.0 051.0,080.0,051.0,47.000,47.345,,10.5574,,10.5572,,10.5573,33.7724,,33.7726,33.7737,,33.7753,33.7740,3.0436,,3.1626,3.1331,3.1919,,3.6788,3.0572,3.0952,132.497,137.8255,139.0540,138.950,158.5239,138.4816,138.7678,0.0455,,0.1104,0.0000,-99.0,,-99.0,-99.0,25.8987,,25.8998,,0.7405,83.0994,,7.857,,2.1465E+03,,1.4286E+00,,10.5519,10.5516,0.1524,,48.401,50.759,,,,,,,,,,,,
CalCOFI,2007SR,069,71,2007_069u,26-Jul-2020 18:34:37,26-Jul-2020 10:34:37,34.45032,-120.52884,080.0 051.0,080.0,051.0,46.000,46.338,,10.5521,,10.5524,,10.5523,33.7733,,33.7735,33.7746,,33.7762,33.7749,3.0445,,3.1635,3.1341,3.1914,,3.6776,3.0556,3.0949,132.534,137.8641,139.0437,138.930,158.6144,138.4947,138.7692,0.0456,,0.1115,0.0000,-99.0,,-99.0,-99.0,25.9003,,25.9013,,0.7388,83.1358,,7.858,,2.1489E+03,,1.4693E+00,,10.5467,10.5469,0.1524,,48.409,50.746,,,,,,,,,,,,
CalCOFI,2007SR,069,71,2007_069u,26-Jul-2020 18:34:38,26-Jul-2020 10:34:38,34.45032,-120.52884,080.0 051.0,080.0,051.0,45.000,45.330,,10.5571,,10.5577,,10.5574,33.7722,,33.7724,33.7734,,33.7750,33.7737,3.0537,,3.1731,3.1442,3.1909,,3.6764,3.0540,3.0991,132.938,138.2859,138.9315,138.908,159.6025,138.5091,138.7203,0.0465,,0.1221,0.0000,-99.0,,-99.0,-99.0,25.8986,,25.8995,,0.7403,83.1034,,7.858,,2.1563E+03,,1.4861E+00,,10.5518,10.5524,0.1524,,48.561,50.744,,,,,,,,,,,,
CalCOFI,2007SR,069,71,2007_069u,26-Jul-2020 18:34:41,26-Jul-2020 10:34:41,34.45032,-120.52884,080.0 051.0,080.0,051.0,44.000,44.323,,10.5620,,10.5631,,10.5626,33.7714,,33.7716,33.7729,,33.7745,33.7731,3.0714,,3.1916,3.1636,3.1906,,3.6757,3.0530,3.1083,133.707,139.0886,138.7179,138.893,161.4834,138.5190,138.6185,0.0467,,0.1245,0.0000,-99.0,,-99.0,-99.0,25.8971,,25.8981,,0.7417,83.0755,,7.858,,2.1596E+03,,1.5116E+00,,10.5568,10.5578,0.1524,,48.847,50.744,,,,,,,,,,,,
CalCOFI,2007SR,069,71,2007_069u,26-Jul-2020 18:34:42,26-Jul-2020 10:34:42,34.45032,-120.52884,080.0 051.0,080.0,051.0,43.000,43.315,,10.5910,,10.5903,,10.5907,33.7665,,33.7667,33.7683,,33.7699,33.7683,3.0759,,3.1963,3.1685,3.1902,,3.6748,3.0517,3.1101,133.901,139.2912,138.6640,138.881,161.9579,138.5268,138.5954,0.0471,,0.1291,0.0000,-99.0,,-99.0,-99.0,25.8882,,25.8897,,0.7391,83.1296,,7.858,,2.1537E+03,,1.5945E+00,,10.5859,10.5852,0.1524,,48.947,50.767,,,,,,,,,,,,
CalCOFI,2007SR,069,71,2007_069u,26-Jul-2020 18:34:45,26-Jul-2020 10:34:45,34.45032,-120.52884,080.0 051.0,080.0,051.0,42.000,42.308,,10.6000,,10.6010,,10.6005,33.7646,,33.7648,33.7660,,33.7676,33.7662,3.0702,,3.1904,3.1623,3.1917,,3.6783,3.0565,3.1094,133.657,139.0364,138.7318,138.946,161.3611,138.4842,138.6080,0.0494,,0.1562,0.0667,-99.0,,-99.0,-99.0,25.8852,,25.8860,,0.7376,83.1608,,7.860,,2.1480E+03,,1.6890E+00,,10.5950,10.5960,0.1524,,48.866,50.802,,,,,,,,,,,,
CalCOFI,2007SR,069,71,2007_069u,26-Jul-2020 18:35:01,26-Jul-2020 10:35:01,34.45032,-120.52884,080.0 051.0,080.0,051.0,41.000,41.300,,10.5850,,10.5810,,10.5830,33.7669,,33.7671,33.7689,,33.7705,33.7688,3.0649,,3.1848,3.1565,3.2091,,3.7199,3.1125,3.1345,133.426,138.7953,138.7959,139.703,160.7961,137.9874,138.3917,0.0502,,0.1656,0.1040,-99.0,,-99.0,-99.0,25.8895,,25.8918,,0.7378,83.1572,,7.861,,2.1526E+03,,1.7163E+00,,10.5801,10.5762,0.1528,,48.767,51.058,41,10.585,33.7710,3.164,138.08,0.213,0.203,19.84,0.026,0.10,1.60,20.58
CalCOFI,2007SR,069,71,2007_069u,26-Jul-2020 18:35:18,26-Jul-2020 10:35:18,34.45032,-120.52884,080.0 051.0,080.0,051.0,40.000,40.293,,10.5843,,10.5825,,10.5834,33.7668,,33.7670,33.7685,,33.7701,33.7686,3.0728,,3.1931,3.1651,3.2173,,3.7395,3.1388,3.1520,133.770,139.1544,138.7004,140.058,161.6375,137.7544,138.2274,0.0465,,0.1221,0.0000,-99.0,,-99.0,-99.0,25.8895,,25.8912,,0.7382,83.1467,,7.861,,2.1536E+03,,1.7569E+00,,10.5796,10.5777,0.1534,,48.892,51.189,,,,,,,,,,,,
CalCOFI,2007SR,069,71,2007_069u,26-Jul-2020 18:35:20,26-Jul-2020 10:35:20,34.45032,-120.52884,080.0 051.0,080.0,051.0,39.000,39.285,,10.5883,,10.5858,,10.5871,33.7660,,33.7662,33.7679,,33.7695,33.7679,3.0787,,3.1992,3.1716,3.2164,,3.7373,3.1359,3.1538,134.024,139.4196,138.6298,140.020,162.2587,137.7794,138.2046,0.0580,,0.2572,0.4677,-99.0,,-99.0,-99.0,25.8882,,25.8901,,0.7380,83.1530,,7.861,,2.1523E+03,,1.8531E+00,,10.5837,10.5812,0.1534,,48.989,51.178,,,,,,,,,,,,
CalCOFI,2007SR,069,71,2007_069u,26-Jul-2020 18:35:22,26-Jul-2020 10:35:22,34.45032,-120.52884,080.0 051.0,080.0,051.0,38.000,38.278,,10.5969,,10.5973,,10.5971,33.7652,,33.7654,33.7666,,33.7682,33.7668,3.0807,,3.2013,3.1737,3.2154,,3.7349,3.1327,3.1532,134.110,139.5093,138.6059,139.977,162.4691,137.8076,138.2068,0.0533,,0.2020,0.2486,-99.0,,-99.0,-99.0,25.8860,,25.8871,,0.7363,83.1879,,7.861,,2.1593E+03,,1.9324E+00,,10.5924,10.5928,0.1534,,49.029,51.175,,,,,,,,,,,,
CalCOFI,2007SR,069,71,2007_069u,26-Jul-2020 18:35:24,26-Jul-2020 10:35:24,34.45032,-120.52884,080.0 051.0,080.0,051.0,37.000,37.271,,10.6045,,10.6065,,10.6055,33.7644,,33.7646,33.7659,,33.7675,33.7661,3.0886,,3.2096,3.1824,3.2193,,3.7442,3.1452,3.1638,134.456,139.8705,138.5098,140.145,163.3153,137.6974,138.1036,0.0484,,0.1444,0.0201,-99.0,,-99.0,-99.0,25.8841,,25.8849,,0.7333,83.2506,,7.861,,2.1627E+03,,2.0072E+00,,10.6001,10.6021,0.1534,,49.163,51.246,,,,,,,,,,,,
CalCOFI,2007SR,069,71,2007_069u,26-Jul-2020 18:35:26,26-Jul-2020 10:35:26,34.45032,-120.52884,080.0 051.0,080.0,051.0,36.000,36.263,,10.6227,,10.6238,,10.6233,33.7632,,33.7634,33.7644,,33.7660,33.7647,3.1042,,3.2259,3.1995,3.2126,,3.7282,3.1237,3.1616,135.136,140.5804,138.3208,139.856,164.9785,137.8870,138.1039,0.0509,,0.1738,0.1367,-99.0,,-99.0,-99.0,25.8799,,25.8807,,0.7318,83.2804,,7.861,,2.1600E+03,,2.1701E+00,,10.6185,10.6195,0.1534,,49.431,51.159,,,,,,,,,,,,
CalCOFI,2007SR,069,71,2007_069u,26-Jul-2020 18:35:28,26-Jul-2020 10:35:28,34.45032,-120.52884,080.0 051.0,080.0,051.0,35.000,35.256,,10.6381,,10.6417,,10.6399,33.7614,,33.7616,33.7625,,33.7641,33.7629,3.1131,,3.2352,3.2092,3.2161,,3.7366,3.1350,3.1721,135.525,140.9864,138.2128,140.009,165.9299,137.7866,137.9997,0.0456,,0.1115,0.0000,-99.0,,-99.0,-99.0,25.8758,,25.8761,,0.7309,83.3008,,7.863,,2.1466E+03,,2.3293E+00,,10.6340,10.6376,0.1534,,49.589,51.233,,,,,,,,,,,,
CalCOFI,2007SR,069,71,2007_069u,26-Jul-2020 18:35:30,26-Jul-2020 10:35:30,34.45032,-120.52884,080.0 051.0,080.0,051.0,34.000,34.248,,10.6614,,10.6629,,10.6622,33.7581,,33.7583,33.7596,,33.7612,33.7598,3.1210,,3.2434,3.2178,3.2141,,3.7318,3.1285,3.1732,135.868,141.3445,138.1175,139.922,166.7689,137.8437,137.9806,0.0492,,0.1538,0.0574,-99.0,,-99.0,-99.0,25.8691,,25.8700,,0.7278,83.3649,,7.865,,2.1496E+03,,2.3928E+00,,10.6573,10.6589,0.1534,,49.737,51.224,,,,,,,,,,,,
CalCOFI,2007SR,069,71,2007_069u,26-Jul-2020 18:35:32,26-Jul-2020 10:35:32,34.45032,-120.52884,080.0 051.0,080.0,051.0,33.000,33.241,,10.6797,,10.6830,,10.6814,33.7563,,33.7565,33.7572,,33.7588,33.7577,3.1298,,3.2526,3.2275,3.2120,,3.7268,3.1218,3.1747,136.255,141.7485,138.0099,139.830,167.7154,137.9041,137.9570,0.0468,,0.1256,0.0000,-99.0,,-99.0,-99.0,25.8645,,25.8647,,0.7277,83.3673,,7.866,,2.1615E+03,,2.4657E+00,,10.6757,10.6791,0.1534,,49.898,51.211,,,,,,,,,,,,
CalCOFI,2007SR,069,71,2007_069u,26-Jul-2020 18:35:34,26-Jul-2020 10:35:34,34.45032,-120.52884,080.0 051.0,080.0,051.0,32.000,32.234,,10.7003,,10.7057,,10.7030,33.7531,,33.7533,33.7538,,33.7554,33.7544,3.1392,,3.2625,3.2378,3.2144,,3.7325,3.1295,3.1837,136.662,142.1734,137.8969,139.937,168.7109,137.8338,137.8654,0.0475,,0.1338,0.0000,-99.0,,-99.0,-99.0,25.8584,,25.8580,,0.7263,83.3958,,7.866,,2.1577E+03,,2.7261E+00,,10.6965,10.7019,0.1534,,50.068,51.274,,,,,,,,,,,,
CalCOFI,2007SR,069,71,2007_069u,26-Jul-2020 18:35:39,26-Jul-2020 10:35:39,34.45032,-120.52884,080.0 051.0,080.0,051.0,31.000,31.226,,10.7016,,10.7046,,10.7031,33.7523,,33.7525,33.7529,,33.7545,33.7535,3.1315,,3.2544,3.2293,3.2203,,3.7466,3.1485,3.1889,136.329,141.8257,137.9894,140.194,167.8964,137.6652,137.8273,0.0503,,0.1667,0.1087,-99.0,,-99.0,-99.0,25.8575,,25.8575,,0.7278,83.3652,,7.867,,2.1552E+03,,2.8880E+00,,10.6979,10.7009,0.1534,,49.947,51.366,,,,,,,,,,,,
CalCOFI,2007SR,069,71,2007_069u,26-Jul-2020 18:35:57,26-Jul-2020 10:35:57,34.45032,-120.52884,080.0 051.0,080.0,051.0,30.000,30.219,,10.6995,,10.7339,,10.7167,33.7523,,33.7525,33.7488,,33.7504,33.7515,3.1338,,3.2568,3.2319,3.2333,,3.7777,3.1903,3.2111,136.429,141.9301,137.9616,140.761,168.1410,137.2931,137.6274,0.0542,,0.2126,0.2905,-99.0,,-99.0,-99.0,25.8579,,25.8490,,0.7262,83.3984,,7.871,,2.1563E+03,,2.9538E+00,,10.6959,10.7303,0.1539,,49.981,51.605,30,10.700,33.7471,3.076,134.27,0.215,0.234,19.06,0.025,0.12,1.54,19.31
CalCOFI,2007SR,069,71,2007_069u,26-Jul-2020 18:36:16,26-Jul-2020 10:36:16,34.45032,-120.52884,080.0 051.0,080.0,051.0,29.000,29.212,,10.8206,,10.8575,,10.8391,33.7367,,33.7369,33.7321,,33.7337,33.7353,3.2659,,3.3948,3.3764,3.2317,,3.7738,3.1851,3.2808,142.183,147.9367,136.3630,140.698,182.2145,137.3345,136.8488,0.0507,,0.1714,0.1274,-99.0,,-99.0,-99.0,25.8243,,25.8142,,0.7323,83.2699,,7.876,,2.1550E+03,,3.0246E+00,,10.8171,10.8540,0.1550,,52.218,51.711,,,,,,,,,,,,
CalCOFI,2007SR,069,71,2007_069u,26-Jul-2020 18:36:17,26-Jul-2020 10:36:17,34.45032,-120.52884,080.0 051.0,080.0,051.0,28.000,28.204,,10.9330,,10.9342,,10.9336,33.7167,,33.7169,33.7176,,33.7192,33.7181,3.2688,,3.3979,3.3796,3.2317,,3.7738,3.1851,3.2824,142.315,148.0745,136.3263,140.698,182.5373,137.3345,136.8304,0.0534,,0.2032,0.2532,-99.0,,-99.0,-99.0,25.7888,,25.7893,,0.7474,82.9578,,7.878,,2.1629E+03,,3.3047E+00,,10.9296,10.9308,0.1550,,52.384,51.790,,,,,,,,,,,,
CalCOFI,2007SR,069,71,2007_069u,26-Jul-2020 18:36:19,26-Jul-2020 10:36:19,34.45032,-120.52884,080.0 051.0,080.0,051.0,27.000,27.197,,10.9647,,10.9647,,10.9647,33.7140,,33.7142,33.7156,,33.7172,33.7157,3.2916,,3.4217,3.4045,3.2282,,3.7655,3.1739,3.2892,143.307,149.1101,136.0507,140.548,184.9636,137.4329,136.7418,0.0575,,0.2513,0.4444,-99.0,,-99.0,-99.0,25.7811,,25.7822,,0.7559,82.7807,,7.880,,2.1598E+03,,3.5128E+00,,10.9614,10.9615,0.1550,,52.783,51.768,,,,,,,,,,,,
CalCOFI,2007SR,069,71,2007_069u,26-Jul-2020 18:36:20,26-Jul-2020 10:36:20,34.45032,-120.52884,080.0 051.0,080.0,051.0,26.000,26.190,,11.0094,,11.0154,,11.0124,33.7143,,33.7145,33.7158,,33.7174,33.7160,3.3027,,3.4333,3.4167,3.2274,,3.7636,3.1713,3.2940,143.793,149.6174,135.9157,140.513,186.1523,137.4559,136.6858,0.0796,,0.5112,1.4748,-99.0,,-99.0,-99.0,25.7732,,25.7734,,0.7568,82.7630,,7.883,,2.1617E+03,,3.7019E+00,,11.0063,11.0122,0.1550,,53.013,51.811,,,,,,,,,,,,
CalCOFI,2007SR,069,71,2007_069u,26-Jul-2020 18:36:23,26-Jul-2020 10:36:23,34.45032,-120.52884,080.0 051.0,080.0,051.0,25.000,25.182,,11.0514,,11.0525,,11.0520,33.7140,,33.7142,33.7152,,33.7168,33.7155,3.3025,,3.4331,3.4165,3.2290,,3.7674,3.1764,3.2965,143.787,149.6111,135.9174,140.585,186.1376,137.4086,136.6630,0.0620,,0.3042,0.6542,-99.0,,-99.0,-99.0,25.7654,,25.7662,,0.7528,82.8444,,7.884,,2.1646E+03,,4.0301E+00,,11.0484,11.0494,0.1550,,53.058,51.878,,,,,,,,,,,,
CalCOFI,2007SR,069,71,2007_069u,26-Jul-2020 18:36:25,26-Jul-2020 10:36:25,34.45032,-120.52884,080.0 051.0,080.0,051.0,24.000,24.175,,11.0556,,11.0668,,11.0612,33.7145,,33.7147,33.7157,,33.7173,33.7160,3.3522,,3.4850,3.4709,3.2316,,3.7736,3.1848,3.3279,145.948,151.8670,135.3170,140.699,191.4231,137.3338,136.3254,0.0810,,0.5277,1.5401,-99.0,,-99.0,-99.0,25.7651,,25.7640,,0.7512,82.8789,,7.888,,2.1617E+03,,4.5610E+00,,11.0526,11.0639,0.1550,,53.860,51.935,,,,,,,,,,,,
CalCOFI,2007SR,069,71,2007_069u,26-Jul-2020 18:36:28,26-Jul-2020 10:36:28,34.45032,-120.52884,080.0 051.0,080.0,051.0,23.000,23.167,,11.1266,,11.1340,,11.1303,33.7154,,33.7156,33.7170,,33.7186,33.7171,3.4135,,3.5491,3.5379,3.2268,,3.7621,3.1694,3.3537,148.619,154.6553,134.5749,140.491,197.9560,137.4703,136.0226,0.0653,,0.3430,0.8081,-99.0,,-99.0,-99.0,25.7530,,25.7529,,0.7469,82.9662,,7.890,,2.1659E+03,,4.8514E+00,,11.1238,11.1312,0.1550,,54.929,51.933,,,,,,,,,,,,
CalCOFI,2007SR,069,71,2007_069u,26-Jul-2020 18:36:30,26-Jul-2020 10:36:30,34.45032,-120.52884,080.0 051.0,080.0,051.0,22.000,22.160,,11.2467,,11.2497,,11.2482,33.7121,,33.7123,33.7145,,33.7161,33.7142,3.4072,,3.5425,3.5311,3.2265,,3.7614,3.1684,3.3498,148.350,154.3745,134.6496,140.479,197.2981,137.4782,136.0639,0.0734,,0.4383,1.1857,-99.0,,-99.0,-99.0,25.7287,,25.7300,,0.7456,82.9932,,7.894,,2.1637E+03,,5.2337E+00,,11.2440,11.2470,0.1550,,54.967,52.055,,,,,,,,,,,,
CalCOFI,2007SR,069,71,2007_069u,26-Jul-2020 18:36:34,26-Jul-2020 10:36:34,34.45032,-120.52884,080.0 051.0,080.0,051.0,21.000,21.153,,11.2759,,11.2711,,11.2735,33.7084,,33.7086,33.7099,,33.7115,33.7101,3.4217,,3.5576,3.5469,3.2391,,3.7915,3.2089,3.3779,148.981,155.0332,134.4743,141.031,198.8414,137.1159,135.7951,0.0772,,0.4830,1.3629,-99.0,,-99.0,-99.0,25.7205,,25.7225,,0.7473,82.9589,,7.901,,2.1587E+03,,5.7327E+00,,11.2733,11.2685,0.1550,,55.233,52.281,,,,,,,,,,,,
CalCOFI,2007SR,069,71,2007_069u,26-Jul-2020 18:36:52,26-Jul-2020 10:36:52,34.45032,-120.52884,080.0 051.0,080.0,051.0,20.000,20.145,,11.1798,,11.2097,,11.1948,33.7091,,33.7093,33.7089,,33.7105,33.7099,3.3631,,3.4964,3.4828,3.2845,,3.8999,3.3548,3.4188,146.428,152.3681,135.1836,143.006,192.5971,135.8199,135.5018,0.0799,,0.5147,1.4888,-99.0,,-99.0,-99.0,25.7384,,25.7329,,0.7551,82.7978,,7.909,,2.1531E+03,,6.2932E+00,,11.1773,11.2072,0.1555,,54.177,52.944,20,11.180,33.7095,3.550,154.95,0.792,0.324,16.67,0.038,0.00,1.38,16.86
CalCOFI,2007SR,069,71,2007_069u,26-Jul-2020 18:37:08,26-Jul-2020 10:37:08,34.45032,-120.52884,080.0 051.0,080.0,051.0,19.000,19.138,,11.2655,,11.2498,,11.2577,33.7102,,33.7104,33.7153,,33.7169,33.7137,3.5392,,3.6804,3.6755,3.2926,,3.9192,3.3809,3.5282,154.097,160.3738,133.0529,143.358,211.3544,135.5889,134.3209,0.0955,,0.6984,2.2161,-99.0,,-99.0,-99.0,25.7237,,25.7306,,0.7665,82.5627,,7.920,,2.1457E+03,,7.0032E+00,,11.2632,11.2475,0.1559,,57.118,53.122,,,,,,,,,,,,